Time,TemperatureF,DewpointF,PressureIn,WindDirection,WindDirectionDegrees,WindSpeedMPH,WindSpeedGustMPH,Humidity,HourlyPrecipIn,Conditions,Clouds,dailyrainin,SoftwareType,DateUTC
2013-02-22 02:22:00,35.0,-99.9,-100.00,North,-999,-999.0,-999.0,-999,-99.99,,,-99.99,,2013-02-22 08:22:00,
2013-02-22 02:32:00,35.0,-99.9,-100.00,North,-999,-999.0,-999.0,-999,-99.99,,,-99.99,,2013-02-22 08:32:00,
2013-02-22 02:42:00,35.0,-99.9,-100.00,North,-999,-999.0,-999.0,-999,-99.99,,,-99.99,,2013-02-22 08:42:00,
2013-02-22 03:22:00,34.0,-99.9,-100.00,North,-999,-999.0,-999.0,-999,0.00,,,0.13,,2013-02-22 09:22:00,
2013-02-22 03:32:00,34.0,-99.9,-100.00,North,-999,-999.0,-999.0,-999,0.00,,,0.13,,2013-02-22 09:32:00,
2013-02-22 03:42:00,34.0,-99.9,-100.00,North,-999,-999.0,-999.0,-999,0.00,,,0.13,,2013-02-22 09:42:00,
2013-02-22 04:22:00,33.0,-99.9,-100.00,North,-999,-999.0,-999.0,-999,0.00,,,-99.99,,2013-02-22 10:22:00,
2013-02-22 04:32:00,33.0,-99.9,-100.00,North,-999,-999.0,-999.0,-999,0.00,,,-99.99,,2013-02-22 10:32:00,
2013-02-22 05:22:00,32.0,-99.9,-100.00,North,-999,-999.0,-999.0,-999,0.00,,,0.13,,2013-02-22 11:22:00,
2013-02-22 05:32:00,32.0,-99.9,-100.00,North,-999,-999.0,-999.0,-999,0.00,,,0.13,,2013-02-22 11:32:00,
2013-02-22 05:42:00,32.0,-99.9,-100.00,North,-999,-999.0,-999.0,-999,0.00,,,0.13,,2013-02-22 11:42:00,
2013-02-22 06:22:00,33.0,-99.9,-100.00,North,-999,-999.0,-999.0,-999,0.00,,,0.13,,2013-02-22 12:22:00,
2013-02-22 06:33:00,33.0,-99.9,-100.00,North,-999,-999.0,-999.0,-999,0.00,,,0.13,,2013-02-22 12:33:00,
2013-02-22 06:43:00,33.0,-99.9,-100.00,North,-999,-999.0,-999.0,-999,0.00,,,0.13,,2013-02-22 12:43:00,
2013-02-22 07:22:00,32.0,-99.9,-100.00,North,-999,-999.0,-999.0,-999,0.00,,,0.13,,2013-02-22 13:22:00,
2013-02-22 07:32:00,32.0,-99.9,-100.00,North,-999,-999.0,-999.0,-999,0.00,,,0.13,,2013-02-22 13:32:00,
2013-02-22 07:42:00,32.0,-99.9,-100.00,North,-999,-999.0,-999.0,-999,0.00,,,0.13,,2013-02-22 13:42:00,
2013-02-22 08:22:00,32.0,-99.9,-100.00,North,-999,-999.0,-999.0,-999,0.00,,,0.13,,2013-02-22 14:22:00,
2013-02-22 08:32:00,32.0,-99.9,-100.00,North,-999,-999.0,-999.0,-999,0.00,,,0.13,,2013-02-22 14:32:00,
2013-02-22 08:42:00,32.0,-99.9,-100.00,North,-999,-999.0,-999.0,-999,0.00,,,0.13,,2013-02-22 14:42:00,
2013-02-22 09:22:00,32.0,-99.9,-100.00,North,-999,-999.0,-999.0,-999,0.00,,,0.13,,2013-02-22 15:22:00,
2013-02-22 09:32:00,32.0,-99.9,-100.00,North,-999,-999.0,-999.0,-999,0.00,,,0.13,,2013-02-22 15:32:00,
2013-02-22 09:42:00,32.0,-99.9,-100.00,North,-999,-999.0,-999.0,-999,0.00,,,0.13,,2013-02-22 15:42:00,
2013-02-22 10:22:00,33.0,-99.9,-100.00,North,-999,-999.0,-999.0,-999,0.00,,,-99.99,,2013-02-22 16:22:00,
2013-02-22 10:32:00,33.0,-99.9,-100.00,North,-999,-999.0,-999.0,-999,0.00,,,-99.99,,2013-02-22 16:32:00,
2013-02-22 10:42:00,33.0,-99.9,-100.00,North,-999,-999.0,-999.0,-999,0.00,,,-99.99,,2013-02-22 16:42:00,
2013-02-22 11:22:00,33.0,-99.9,-100.00,North,-999,-999.0,-999.0,-999,0.00,,,0.13,,2013-02-22 17:22:00,
2013-02-22 11:32:00,33.0,-99.9,-100.00,North,-999,-999.0,-999.0,-999,0.00,,,0.13,,2013-02-22 17:32:00,
2013-02-22 11:42:00,33.0,-99.9,-100.00,North,-999,-999.0,-999.0,-999,0.00,,,0.13,,2013-02-22 17:42:00,
2013-02-22 12:23:00,35.0,-99.9,-100.00,North,-999,-999.0,-999.0,-999,0.00,,,0.12,,2013-02-22 18:23:00,
2013-02-22 12:32:00,35.0,-99.9,-100.00,North,-999,-999.0,-999.0,-999,0.00,,,0.12,,2013-02-22 18:32:00,
2013-02-22 12:42:00,35.0,-99.9,-100.00,North,-999,-999.0,-999.0,-999,0.00,,,0.12,,2013-02-22 18:42:00,
2013-02-22 15:32:00,38.0,-99.9,-100.00,North,-999,-999.0,-999.0,-999,0.01,,,0.08,,2013-02-22 21:32:00,
2013-02-22 15:42:00,38.0,-99.9,-100.00,North,-999,-999.0,-999.0,-999,0.01,,,0.08,,2013-02-22 21:42:00,
2013-02-22 16:22:00,40.0,-99.9,-100.00,North,-999,-999.0,-999.0,-999,0.00,,,0.06,,2013-02-22 22:22:00,
2013-02-22 16:32:00,40.0,-99.9,-100.00,North,-999,-999.0,-999.0,-999,0.00,,,0.06,,2013-02-22 22:32:00,
2013-02-22 16:42:00,40.0,-99.9,-100.00,North,-999,-999.0,-999.0,-999,0.00,,,0.06,,2013-02-22 22:42:00,
2013-02-22 17:22:00,41.0,-99.9,-100.00,North,-999,-999.0,-999.0,-999,0.00,,,0.05,,2013-02-22 23:22:00,
2013-02-22 17:32:00,41.0,-99.9,-100.00,North,-999,-999.0,-999.0,-999,0.00,,,0.05,,2013-02-22 23:32:00,
2013-02-22 17:42:00,41.0,-99.9,-100.00,North,-999,-999.0,-999.0,-999,0.00,,,0.05,,2013-02-22 23:42:00,
2013-02-22 18:22:00,39.0,-99.9,-100.00,North,-999,-999.0,-999.0,-999,0.01,,,0.05,,2013-02-23 00:22:00,
2013-02-22 18:32:00,39.0,-99.9,-100.00,North,-999,-999.0,-999.0,-999,0.01,,,0.05,,2013-02-23 00:32:00,
2013-02-22 18:42:00,39.0,-99.9,-100.00,North,-999,-999.0,-999.0,-999,0.01,,,0.05,,2013-02-23 00:42:00,
2013-02-22 19:22:00,34.0,-99.9,-100.00,North,-999,-999.0,-999.0,-999,0.00,,,-99.99,,2013-02-23 01:22:00,
2013-02-22 19:32:00,34.0,-99.9,-100.00,North,-999,-999.0,-999.0,-999,0.00,,,-99.99,,2013-02-23 01:32:00,
2013-02-22 19:42:00,34.0,-99.9,-100.00,North,-999,-999.0,-999.0,-999,0.00,,,-99.99,,2013-02-23 01:42:00,
2013-02-22 20:22:00,33.0,-99.9,-100.00,North,-999,-999.0,-999.0,-999,0.00,,,-99.99,,2013-02-23 02:22:00,
2013-02-22 20:32:00,33.0,-99.9,-100.00,North,-999,-999.0,-999.0,-999,0.00,,,-99.99,,2013-02-23 02:32:00,
2013-02-22 20:42:00,33.0,-99.9,-100.00,North,-999,-999.0,-999.0,-999,0.00,,,-99.99,,2013-02-23 02:42:00,
2013-02-22 21:22:00,32.0,-99.9,-100.00,North,-999,-999.0,-999.0,-999,0.00,,,-99.99,,2013-02-23 03:22:00,
2013-02-22 21:32:00,32.0,-99.9,-100.00,North,-999,-999.0,-999.0,-999,0.00,,,-99.99,,2013-02-23 03:32:00,
2013-02-22 21:42:00,32.0,-99.9,-100.00,North,-999,-999.0,-999.0,-999,0.00,,,-99.99,,2013-02-23 03:42:00,
2013-02-22 22:22:00,31.0,-99.9,-100.00,North,-999,-999.0,-999.0,-999,0.00,,,-99.99,,2013-02-23 04:22:00,
2013-02-22 22:32:00,31.0,-99.9,-100.00,North,-999,-999.0,-999.0,-999,0.00,,,-99.99,,2013-02-23 04:32:00,
2013-02-22 22:42:00,31.0,-99.9,-100.00,North,-999,-999.0,-999.0,-999,0.00,,,-99.99,,2013-02-23 04:42:00,
2013-02-22 23:33:00,30.0,-99.9,-100.00,North,-999,-999.0,-999.0,-999,0.00,,,-99.99,,2013-02-23 05:33:00,